SCP
0 0 0 0 0 0 0 0 0 0 0 0 0 0 0 0 0 0 0 0 0 0 0 0 0 0 0 0 0 0 0 0 0 0 0 0 0 0
0 0 0 0 0 0 0 0 0 0 0 0 0 0 0 0 0 0 0 0 0 0 0 0 0 0 0 0 0 0 0 0 0 0 0 0 0 0
0 0 0 0 0 0 0 0 0 0 0 0 0 0 0 0 0 0 0 0 0 0 0 0 0 0 0 0 0 0 0 0 0 0 0 0 0 0
0 0 0 0 0 0 0 0 0 0 0 0 0 0 0 0 0 0 0 0 0 0 0 0 0 0 0 0 0 0 0 0 0 0 0 0 0 0
0 0 0 0 0 0 0 0 0 0 0 0 0 0 0 0 0 0 0 0 0 0 0 0 0 0 0 0 0 0 0 0 0 0 0 0 0 0
0 0 0 0 0 0 0 0 0 0 0 0 0 0 0 0 0 0 0 0 0 0 0 0 0 0 0 0 0 0 0 0 0 0 0 0 0 0
0 0 0 0 0 0 0 0 0 0 0 0 0 0 0 0 0 0 0 0 0 0 0 0 0 0 0 0 0 0 0 0 0 0 0 0 0 0
0 0 0 0 0 0 0 0 0 0 0 0 0 0 0 0 0 0 0 0 0 0 0 0 0 0 0 0 0 0 0 0 0 0 0 0 0 0
0 0 0 0 0 0 0 0 0 0 0 0 0 0 0 0 0 0 0 0 0 0 0 0 0 0 0 0 0 0 0 0 0 0 0 0 0 0
0 0 0 0 0 0 0 0 0 0 0 0 0 0 0 0 0 0 0 0 0 0 0 0 0 0 0 0 0 0 0 0 0 0 0 0 0 0
0 0 0 0 0 0 0 0 0 0 0 0 0 0 0 0 0 0 0 0 0 0 0 0 0 0 0 0 0 0 0 0 0 0 0 0 0 0
0 0 0 0 0 0 0 0 0 0 0 0 0 0 0 0 0 0 0 0 0 0 0 0 0 0 0 0 0 0 0 0 0 0 0 0 0 0
0 0 0 0 0 0 0 0 0 0 0 0 0 0 0 0 0 0 0 0 0 0 0 0 0 0 0 0 0 0 0 0 0 0 0 0 0 0
0 0 0 0 0 0 0 0 0 0 0 0 0 0 0 0 0 0 0 0 0 0 0 0 0 0 0 0 0 0 0 0 0 0 0 0 0 0
0 0 0 0 0 0 0 0 0 0 0 0 0 0 0 0 0 0 0 0 0 0 0 0 0 0 0 0 0 0 0 0 0 0 0 0 0 0
0 0 0 0 0 0 0 0 0 0 0 0 0 0 0 0 0 0 0 0 0 0 0 0 0 0 0 0 0 0 0 0 0 0 0 0 0 0
0 0 0 0 0 0 0 0 0 0 0 0 0 0 0 0 0 0 0 0 0 0 0 0 0 0 0 0 0 0 0 0 0 0 0 0 0 0
0 0 0 0 0 0 0 0 0 0 0 0 0 0 0 0 0 0 0 0 0 0 0 0 0 0 0 0 0 0 0 0 0 0 0 0 0 0
0 0 0 0 0 0 0 0 0 0 0 0 0 0 0 0 0 0 0 0 0 0 0 0 0 0 0 0 0 0 0 0 0 0 0 0 0 0
0 0 0 0 0 0 0 0 0 0 0 0 0 0 0 0 0 0 0 0 0 0 0 0 0 0 0 0 0 0 0 0 0 0 0 0 0 0
0 0 0 0 0 0 0 0 0 0 0 0 0 0 0 0 0 0 0 0 0 0 0 0 0 0 0 0 0 0 0 0 0 0 0 0 0 0
0 0 0 0 0 0 0 0 0 0 0 0 0 0 0 0 0 0 0 0 0 0 0 0 0 0 0 0 0 0 0 0 0 0 0 0 0 0
0 0 0 0 0 0 0 0 0 0 0 0 0 0 0 0 0 0 0 0 0 0 0 0 0 0 0 0 0 0 0 0 0 0 0 0 0 0
Wind_Speed
14 13 10 8 7 6 6 7 8 8 9 9 7 9 7 6 6 4 4 4 7 6 5 6 7 8 10 11 11 12 13 14 15 16 16 17 18 19
12 14 13 9 8 7 7 6 6 6 7 7 6 8 10 7 7 5 5 7 9 7 7 6 7 8 8 9 11 12 14 15 16 17 18 19 19 20
15 16 15 13 10 9 8 8 7 6 5 5 5 8 11 9 7 6 6 6 5 8 8 8 8 7 8 10 11 13 14 16 17 18 19 19 19 20
19 18 18 12 14 12 11 12 10 9 7 7 7 7 8 9 8 7 6 5 6 7 9 9 9 8 9 11 13 14 15 16 18 18 19 19 19 20
21 22 20 17 17 13 14 13 11 9 7 7 7 6 5 7 8 7 7 7 6 6 8 9 9 9 11 13 14 14 14 15 16 17 19 20 21 22
20 20 21 22 21 18 15 15 12 12 10 9 7 6 6 7 7 7 7 7 5 5 6 7 8 10 12 14 14 14 15 15 16 18 19 20 21 22
21 21 21 22 23 20 16 16 16 13 12 11 8 7 8 8 9 8 7 5 5 5 4 4 4 5 7 10 12 13 14 16 18 20 20 21 22 23
22 21 20 20 23 29 28 26 25 21 18 14 12 12 12 10 10 9 7 5 4 5 3 4 4 6 7 7 10 14 15 17 18 20 21 21 21 23
22 20 17 17 21 21 26 29 27 27 25 18 17 15 13 13 13 12 9 6 4 4 1 4 5 7 6 7 13 15 16 16 17 18 19 20 22 23
22 21 20 20 21 23 21 20 20 21 22 15 11 10 9 12 11 10 9 6 3 3 4 4 4 5 6 7 13 15 15 14 14 16 18 20 22 24
20 20 21 22 27 32 23 21 20 17 21 19 12 11 14 16 13 8 9 7 4 4 7 5 4 4 6 8 9 13 13 14 16 17 17 19 22 24
16 18 21 25 27 34 25 22 22 19 17 17 15 15 14 16 18 10 8 8 5 4 7 5 4 3 4 5 6 6 9 13 16 16 17 19 22 16
14 15 16 28 30 33 30 19 21 18 17 17 15 14 12 11 11 10 8 7 6 4 4 4 4 4 4 4 5 7 8 8 9 11 15 18 19 18
15 13 14 26 31 32 29 24 27 21 14 14 14 14 13 12 10 9 9 7 5 4 3 5 5 4 4 5 5 6 7 8 9 9 8 12 15 20
14 19 21 25 28 26 31 30 22 16 15 15 15 12 11 11 10 9 8 6 4 4 6 8 8 7 7 7 7 8 8 7 7 7 8 10 11 12
16 16 23 24 22 20 19 23 16 14 14 13 13 11 11 11 10 9 8 6 4 4 6 8 8 9 8 9 10 11 10 9 9 10 11 11 11 11
12 12 12 12 15 15 15 15 14 13 13 11 11 12 11 10 9 8 7 6 5 4 4 4 6 7 10 10 9 11 11 11 12 12 13 14 13 12
15 13 13 14 15 16 16 16 14 14 13 12 12 12 12 11 10 8 7 6 5 4 4 4 4 4 5 8 12 12 11 11 11 12 12 15 18 15
14 13 14 14 14 14 14 14 15 15 14 14 14 13 12 11 10 9 8 6 5 4 4 4 4 4 5 7 7 10 10 10 12 13 12 13 17 18
12 13 13 13 13 13 13 13 13 13 13 12 12 12 11 11 10 9 8 7 5 5 5 5 6 7 7 7 8 7 12 13 12 14 15 15 17 23
12 12 11 11 12 12 12 13 13 12 13 13 12 13 11 11 10 9 7 8 6 5 6 6 6 8 8 8 11 11 9 13 17 16 18 18 21 21
11 11 10 10 10 11 11 11 12 12 13 12 12 11 10 9 9 9 7 6 5 5 5 5 6 7 8 10 13 16 16 14 15 23 26 26 20 20
10 11 11 11 11 10 10 12 13 12 11 11 11 10 9 8 7 6 6 5 4 4 5 6 6 7 8 10 12 14 19 20 16 16 15 20 29 36
Wind_Direction
209 206 203 191 185 178 170 169 165 175 192 187 179 184 178 174 171 206 250 246 269 271 277 294 301 311 326 333 333 334 333 333 333 331 329 326 324 322
207 206 207 196 185 179 182 182 188 188 182 170 178 175 176 183 185 216 241 252 254 251 258 271 281 302 319 322 324 325 327 329 332 332 331 328 325 321
207 208 209 198 190 184 184 183 183 181 165 161 163 162 177 188 190 213 232 242 237 240 257 264 272 290 301 305 312 319 324 329 332 332 330 326 323 320
205 207 210 199 200 191 188 188 183 184 176 167 171 172 189 193 198 213 224 236 246 240 252 258 268 281 295 308 314 319 323 327 329 327 322 319 317 316
207 205 204 197 203 197 193 189 180 177 184 168 165 169 177 189 200 210 222 232 233 233 241 247 256 272 295 307 308 313 319 321 320 316 314 314 314 314
219 212 205 200 201 197 197 192 177 177 185 180 170 174 175 172 189 199 203 212 215 213 222 236 253 277 295 300 304 310 314 315 315 315 315 315 315 315
224 219 214 208 204 198 197 192 181 179 183 188 187 186 188 175 192 186 193 198 216 205 214 226 268 291 297 297 298 300 305 311 312 311 309 310 313 314
228 222 216 210 208 206 205 198 191 184 183 184 192 199 199 188 172 172 175 188 194 172 207 254 271 273 271 272 279 288 298 302 300 298 300 305 311 313
231 225 216 210 204 206 209 205 203 203 194 188 191 197 190 183 172 173 178 185 180 142 206 271 239 230 238 252 269 280 286 286 285 289 297 304 307 305
233 229 221 213 205 202 200 202 203 204 202 199 205 199 184 172 171 166 165 174 217 237 210 257 250 228 232 252 265 266 267 271 281 292 296 299 301 301
233 230 225 218 209 203 198 199 199 202 202 195 200 186 170 164 161 152 156 162 198 214 196 232 244 248 255 252 249 252 261 274 282 288 292 297 299 301
227 225 225 220 211 204 201 197 196 192 183 181 186 182 175 172 173 173 173 175 173 202 188 219 239 243 263 224 233 253 265 270 277 285 294 297 298 298
229 220 219 220 215 209 205 204 202 184 179 177 178 179 179 177 175 176 185 187 182 197 180 217 255 245 247 262 239 241 254 264 277 286 288 289 290 292
234 220 213 212 212 209 208 203 200 184 183 180 179 180 175 171 168 171 176 185 193 214 233 240 254 253 266 269 261 253 258 273 278 279 282 288 290 290
234 217 207 207 209 209 210 200 194 186 185 183 181 176 169 160 155 157 160 165 192 232 250 249 250 254 252 260 279 284 296 289 280 283 293 294 292 294
230 208 201 202 204 202 205 199 193 189 189 184 173 160 151 152 156 154 156 160 184 223 234 246 252 254 258 262 270 280 285 287 293 299 299 294 291 289
196 180 182 185 198 198 196 190 185 179 179 172 159 150 150 151 151 150 151 160 180 194 212 228 247 257 259 264 265 265 274 279 286 297 304 302 297 293
194 182 183 186 195 195 189 180 176 173 168 161 157 154 153 154 153 152 157 172 185 203 233 257 274 278 270 250 238 258 265 273 285 296 303 299 296 294
207 191 188 188 192 191 183 175 172 168 165 163 159 156 154 154 153 155 161 167 178 199 224 244 254 259 275 285 274 241 262 283 294 294 289 285 288 292
206 194 190 187 186 182 174 170 166 163 162 158 152 149 149 148 149 153 158 166 175 193 217 230 236 238 249 280 285 276 268 274 284 290 294 292 285 286
198 190 186 182 177 170 164 162 160 160 156 150 146 145 145 146 150 155 159 167 179 198 219 231 239 253 271 277 274 272 269 273 282 286 294 296 296 295
184 176 170 160 154 154 154 154 154 152 149 143 140 141 144 149 152 156 160 167 182 207 231 245 251 252 256 265 276 287 295 297 287 281 277 274 280 285
156 149 142 141 140 143 147 151 151 148 144 139 137 140 142 143 147 155 162 173 192 219 236 246 249 252 262 271 281 289 299 304 302 297 282 276 276 277